User: anonymous   Login
Location: Grums
(59.3529°N, 13.1129°E)
Time: 13:55:28
(UTC+01:00)
Language:

SEEDS - Orbit

View from above orbital plane
View from above orbital plane
View from above satellite
View from above satellite

Ground track
Ground track

The orbit data is extracted from the following two-line orbital elements,

1 32791U 08021J   21339.83638624  .00000955  00000-0  10014-3 0  9999
2 32791  97.5901 317.9668 0014458 112.5923 247.6827 14.91685582738328
Epoch (UTC): 05 December 2021 20:04:23
Eccentricity: 0.0014458
inclination: 97.5901°
perigee height: 582 km
apogee height: 603 km
right ascension of ascending node: 317.9668°
argument of perigee: 112.5923°
revolutions per day: 14.91685582
mean anomaly at epoch: 247.6827°
orbit number at epoch: 73832

The dashed part of the orbit path shows where the satellite is in the earth's shadow,  

DLR